Location: City of Moscow
(46.7306°N, 116.9989°W)
Time: 03:09:08
(UTC+00:00)

Cosmos 1758 Rocket - Pass Details

Date: 11 December 2025
Orbit: 595 x 629 km, 82.5° (Epoch: 13 January)

Event Time Altitude Azimuth Distance (km) Brightness Sun altitude
Rises 13:46:22 0° 188° (S) 2,895 7.1 -15.7°
Reaches altitude 10° 13:48:36 10° 189° (S) 1,989 6.3 -15.4°
Maximum altitude 13:53:00 87° 273° (W) 627 3.5 -14.7°
Drops below altitude 10° 13:57:26 10° 9° (N) 1,986 6.1 -13.9°
Sets 13:59:39 0° 9° (N) 2,890 6.9 -13.6°
